Overview Statistics Trail Chart Weather Telemetry Raw packets
 

This is the latest recevied weather packets stored in our database for station/object N5PER. If no packets are shown the sender has not sent any weather packets the latest 10 day(s).

<< 111 112 113 114 >>
Time Temp. Humidity Pressure Rain* Wind** Luminosity Snow
1787721394 29.44° C 66% 1013.4 hPa 0 mm - 0 W/m² -
1787721089 29.44° C 65% 1013.3 hPa 0 mm - 0 W/m² -
1787720789 30° C 64% 1013.2 hPa 0 mm - 0 W/m² -
1787720489 30° C 63% 1013.3 hPa 0 mm - 0 W/m² -
1787720188 30° C 61% 1013.3 hPa 0 mm - 0 W/m² -
1787719883 30° C 60% 1013.3 hPa 0 mm - 0 W/m² -
1787719583 30° C 57% 1013.4 hPa 0 mm - 0 W/m² -
1787719279 30° C 55% 1013.5 hPa 0 mm - 0 W/m² -
1787718979 30.56° C 54% 1013.6 hPa 0 mm - 0 W/m² -
1787718674 30.56° C 53% 1013.5 hPa 0 mm - 0 W/m² -
1787718375 30.56° C 52% 1013.4 hPa 0 mm - 0 W/m² -
1787718071 30.56° C 52% 1013.3 hPa 0 mm - 0 W/m² -
1787717767 30.56° C 51% 1013.5 hPa 0 mm - 0 W/m² -
1787717462 30.56° C 51% 1013.2 hPa 0 mm - 0 W/m² -
1787717157 30.56° C 50% 1013.3 hPa 0 mm - 0 W/m² -
1787716852 30.56° C 52% 1013.3 hPa 0 mm - 0 W/m² -
1787716551 31.11° C 54% 1013.2 hPa 0 mm - 0 W/m² -
1787716250 31.11° C 55% 1013.4 hPa 0 mm - 0 W/m² -
1787715945 31.11° C 55% 1013.2 hPa 0 mm - 0 W/m² -
1787715644 31.11° C 56% 1013.2 hPa 0 mm - 0 W/m² -
1787715340 31.11° C 57% 1012.9 hPa 0 mm - 0 W/m² -
1787715036 31.11° C 58% 1013.1 hPa 0 mm - 0 W/m² -

* Rain latest hour (hover to see other rain measurements)
** Current wind speed in m/s (hover to see current wind gust speed)